OBJECT AQ, 61773

Orbit data source: Space-Track

You're viewing an Uncataloged Satellite

Recently launched and/or uncataloged satellites may have evolving metadata. Metadata may include but not limited to: Owner, Maufacturer, Bus, Motor, and Mission.

OBJECT AQ, 61773 is a satellite in SSO that was launched on Mon, 04 Nov 2024 UTC via a SOYUZ-2-1B launch vehicle from the Vostochny Cosmodrome (VOSTO). Unknown objects in Earth's orbit typically refer to objects detected orbiting the Earth but have not yet been identified or cataloged. These objects could be anything from previously untracked satellites, spent rocket stages, debris from satellite collisions, or even natural meteoroids temporarily captured by Earth's gravity.

Loading next visibility...
Identifier
61773, 2024-199AQ
Orbit
SSO
Country
Flag of TBDTBD
Related business
Manufacturer
Sputniks
Mission
Operational Commercial Communications
Bus & Motor
CUBESAT 3U?, Unknown motor
Mass
3 kg wet, 3 kg dry
Launch date (UTC)
2024-11-04 (2 years ago)
Launch vehicle
SOYUZ-2-1B
Launch site
Vostochny Cosmodrome (VOSTO)
Object type
Unknown
Shape & HBR
Box, 0.1 m
Radar Cross Section
0.035 m², Small (<0.1 m²)

Expand to show TLE details & history
Last TLE update: 11 hours ago

TLE from 11 hours ago
0 OBJECT AQ
1 61773U 24199AQ  26145.58970788  .00045851  00000-0  64587-3 0  9995
2 61773  97.2951  21.1623 0007149  29.5796 330.5863 15.56478062130920
Epoch: 2026-05-25T14:09Z
TLE epoch observation values (Epoch: 2026-05-25T14:09:10.760Z)
Latitude
0.00003°
Longitude
-74.30786°
Altitude
396.782 km
Speed
7.675 km/s
True Right ascension
01h 24m 38s
True Declination
0° 00' 00"
Sunlit
Object was in daylight at epoch
Visualization orbit readout
Latitude
Unknown
Longitude
Unknown
Altitude
Unknown
Speed
Unknown
Apparent Right ascension
Unknown
Apparent Declination
Unknown
Sunlit
N/A
Visualization observer readout
Local Sidereal Time
10:00:50
Azimuth
Unknown
Elevation
Unknown
Doppler factor
Unknown
Orbital elements
Apogee altitude
399.614 km
Perigee altitude
389.93 km
Semi-major axis
6,772.909 km
Eccentricity
0.00071
Inclination
97.2951°
RAAN
21.1623°
Arg. of periapsis
29.5796°
True anomaly
330.54604°
Mean anomaly
330.5863°
Eccentric anomaly
330.56617°
Mean motion
3.89386 °/min
Orbital period
92.45 mins
BSTAR
0.00064587
Loading maneuver chart data...
Computing Atmospheric mass density...
Loading historical data...
Loading historical data...
Loading historical data...
Loading historical data...
Loading historical data...
Loading historical data...
Loading historical data...

Documentation

Showing up to 5 results
|